Home > Weather > Colón > Past weeks

Flag for Panama Past Weather in Colón, Panama — Yesterday and Last 2 Weeks

Now
77 °F

Partly cloudy.


Feels Like: 78 °F
Forecast: 79 / 87 °F
Wind: No wind

Location: Marcos A. Gelabert

Current Time: May 26, 2016 at 11:49:15 PM

Latest Report: May 26, 2016 at 10:00 PM


Visibility: N/A

Pressure: 29.86 "Hg

Humidity: 94%

Dew Point: 75 °F

Location of ColónLocation

Past Weather in Colón — Graph

°F

Colón Temperature Yesterday

Maximum temperature yesterday: 90 °F (at 12:00 PM)
Minimum temperature yesterday: 77 °F (at 2:00 PM)
Average temperature yesterday: 81 °F

High & Low Weather Summary for the Past Weeks

 TemperatureHumidityPressure
High91 °F (May 14, 12:00 PM)100% (May 21, 7:00 AM)29.95 "Hg (May 21, 7:00 AM)
Low77 °F (May 12, 6:00 AM)46% (May 12, 12:00 PM)29.74 "Hg (May 13, 4:00 PM)
Average84 °F82%29.84 "Hg
* Reported May 11 10:00 PM — May 26 10:00 PM, Colón, Weather by CustomWeather, © 2016

Note: Actual official high and low records may vary slightly from our data, if they occured in-between our weather recording intervals... More about our weather records

Advertising

Colón Weather History for the Previous 24 Hours

Scroll right to see more
 ConditionsComfort  
Time TempWeatherWind HumidityBarometerVisibility
10:00 PM
Thu, May 26
77 °FPartly cloudy.No wind94%29.86 "HgN/A
9:00 PM77 °FPartly cloudy.No wind100%29.86 "Hg6 mi
8:00 PM77 °FLight rain. Passing clouds.3 mph100%29.89 "Hg6 mi
7:00 PM77 °FThunderstorms. Partly cloudy.No wind100%29.86 "Hg6 mi
6:00 PM79 °FThunderstorms. Broken clouds.No wind94%29.83 "Hg6 mi
5:00 PM79 °FThunderstorms. Broken clouds.2 mph94%29.83 "HgN/A
4:00 PM77 °FBroken clouds.2 mph100%29.80 "HgN/A
3:00 PM82 °FThunderstorms. Broken clouds.5 mph89%29.80 "Hg1 mi
2:00 PM88 °FScattered clouds.7 mph70%29.80 "HgN/A
1:00 PM90 °FPassing clouds.3 mph63%29.83 "HgN/A
12:00 PM88 °FScattered clouds.3 mph70%29.86 "Hg6 mi
11:00 AM88 °FScattered clouds.3 mph70%29.86 "Hg6 mi
10:00 AM86 °FScattered clouds.3 mph79%29.89 "Hg6 mi
9:00 AM82 °FPassing clouds.No wind84%29.89 "Hg6 mi
8:00 AM81 °FPassing clouds.5 mph89%29.89 "Hg6 mi
7:00 AM79 °FPassing clouds.5 mph94%29.86 "Hg6 mi
6:00 AM77 °FClear.No wind94%29.86 "Hg5 mi
Weather by CustomWeather, © 2016

See weather overviewHow to use our weather pages